• In Deutschland
  • Länderverzeichnis
  • Für 7 Tage
  • Wassertemperatur
  • Satellitenkarten
  • Wetterkarte
  • Widgets
  • user-avatar
    Anmelden

    Stündliche Wetter Abreu e Lima

    Heute, 25 Februar, Sonntag

    Zeit Temperatur Niederschläge Wind Luftdruck Luftfeuchtigkeit
    00:00 +28°C° 0 mm 3 m/S 757 mmHg 76%
    01:00 +27°C° 0 mm 2 m/S 756 mmHg 77%
    02:00 +27°C° 0,1 mm 2 m/S 756 mmHg 78%
    03:00 +27°C° 0,1 mm 2 m/S 756 mmHg 79%
    04:00 +27°C° 0 mm 2 m/S 756 mmHg 80%
    05:00 +27°C° 0,3 mm 3 m/S 756 mmHg 80%
    06:00 +27°C° 0,3 mm 3 m/S 756 mmHg 81%
    07:00 +27°C° 0,3 mm 3 m/S 757 mmHg 81%
    08:00 +28°C° 0,5 mm 3 m/S 757 mmHg 76%
    09:00 +29°C° 0,5 mm 3 m/S 757 mmHg 72%
    10:00 +30°C° 0 mm 4 m/S 757 mmHg 66%
    11:00 +32°C° 0,3 mm 4 m/S 757 mmHg 62%
    12:00 +33°C° 0,3 mm 4 m/S 757 mmHg 59%
    13:00 +34°C° 0,3 mm 4 m/S 757 mmHg 55%
    14:00 +34°C° 0,1 mm 4 m/S 756 mmHg 56%
    15:00 +33°C° 0,1 mm 4 m/S 756 mmHg 57%
    16:00 +33°C° 0,1 mm 4 m/S 755 mmHg 58%
    17:00 +32°C° 0 mm 4 m/S 756 mmHg 62%
    18:00 +30°C° 0 mm 4 m/S 756 mmHg 66%
    19:00 +29°C° 0 mm 3 m/S 756 mmHg 71%
    20:00 +29°C° 0 mm 3 m/S 756 mmHg 72%
    21:00 +28°C° 0 mm 3 m/S 757 mmHg 74%
    22:00 +28°C° 0 mm 3 m/S 757 mmHg 76%
    23:00 +28°C° 0 mm 3 m/S 757 mmHg 76%

    Morgen, 26 Februar, Montag

    Zeit Temperatur Niederschläge Wind Luftdruck Luftfeuchtigkeit
    00:00 +28°C° 0 mm 3 m/S 757 mmHg 77%
    01:00 +27°C° 0 mm 3 m/S 757 mmHg 78%
    02:00 +27°C° 0 mm 2 m/S 757 mmHg 78%
    03:00 +27°C° 0 mm 2 m/S 757 mmHg 79%
    04:00 +27°C° 0 mm 2 m/S 756 mmHg 80%
    05:00 +27°C° 0 mm 2 m/S 757 mmHg 80%
    06:00 +27°C° 0 mm 2 m/S 757 mmHg 80%
    07:00 +27°C° 0 mm 2 m/S 757 mmHg 80%
    08:00 +28°C° 0,3 mm 2 m/S 757 mmHg 73%
    09:00 +30°C° 0,3 mm 3 m/S 758 mmHg 65%
    10:00 +33°C° 0,3 mm 3 m/S 758 mmHg 58%
    11:00 +33°C° 0,4 mm 4 m/S 758 mmHg 55%
    12:00 +34°C° 0,4 mm 4 m/S 757 mmHg 53%
    13:00 +35°C° 0,4 mm 4 m/S 757 mmHg 50%
    14:00 +34°C° 0,3 mm 4 m/S 757 mmHg 51%
    15:00 +34°C° 0,3 mm 4 m/S 756 mmHg 53%
    16:00 +34°C° 0,3 mm 4 m/S 756 mmHg 54%
    17:00 +33°C° 0,1 mm 4 m/S 756 mmHg 59%
    18:00 +30°C° 0,1 mm 4 m/S 756 mmHg 65%
    19:00 +29°C° 0,1 mm 4 m/S 756 mmHg 70%
    20:00 +29°C° 0 mm 4 m/S 757 mmHg 73%
    21:00 +29°C° 0 mm 4 m/S 757 mmHg 75%
    22:00 +28°C° 0 mm 3 m/S 758 mmHg 78%
    23:00 +28°C° 0,1 mm 3 m/S 757 mmHg 79%

    übermorgen, 27 Februar, Dienstag

    Zeit Temperatur Niederschläge Wind Luftdruck Luftfeuchtigkeit
    00:00 +28°C° 0,1 mm 3 m/S 757 mmHg 81%
    01:00 +27°C° 0,1 mm 3 m/S 757 mmHg 82%
    02:00 +27°C° 0,3 mm 3 m/S 757 mmHg 83%
    03:00 +27°C° 0,3 mm 2 m/S 757 mmHg 83%
    04:00 +27°C° 0,3 mm 2 m/S 756 mmHg 84%
    05:00 +27°C° 0,2 mm 2 m/S 757 mmHg 84%
    06:00 +27°C° 0,2 mm 2 m/S 757 mmHg 84%
    07:00 +27°C° 0,2 mm 2 m/S 757 mmHg 84%
    08:00 +28°C° 0,4 mm 2 m/S 758 mmHg 76%
    09:00 +30°C° 0,4 mm 2 m/S 758 mmHg 69%
    10:00 +31°C° 0,4 mm 3 m/S 758 mmHg 61%
    11:00 +33°C° 0,1 mm 3 m/S 758 mmHg 58%
    12:00 +34°C° 0,1 mm 3 m/S 757 mmHg 55%
    13:00 +35°C° 0,1 mm 4 m/S 757 mmHg 52%
    14:00 +34°C° 0 mm 4 m/S 756 mmHg 54%
    15:00 +34°C° 0 mm 4 m/S 756 mmHg 56%
    16:00 +34°C° 0 mm 5 m/S 755 mmHg 58%
    17:00 +32°C° 0 mm 4 m/S 756 mmHg 63%
    18:00 +30°C° 0 mm 4 m/S 756 mmHg 68%
    19:00 +29°C° 0 mm 4 m/S 756 mmHg 73%
    20:00 +29°C° 0 mm 4 m/S 757 mmHg 75%
    21:00 +29°C° 0 mm 4 m/S 757 mmHg 77%
    22:00 +28°C° 0 mm 3 m/S 757 mmHg 79%
    23:00 +28°C° 0,2 mm 3 m/S 757 mmHg 80%

    28 Februar, Mittwoch

    Zeit Temperatur Niederschläge Wind Luftdruck Luftfeuchtigkeit
    00:00 +28°C° 0,2 mm 3 m/S 757 mmHg 81%
    01:00 +28°C° 0,2 mm 3 m/S 756 mmHg 83%
    02:00 +28°C° 0,5 mm 3 m/S 756 mmHg 83%
    03:00 +27°C° 0,5 mm 2 m/S 756 mmHg 84%
    04:00 +27°C° 0,5 mm 2 m/S 755 mmHg 85%
    05:00 +27°C° 1,6 mm 2 m/S 756 mmHg 84%
    06:00 +27°C° 1,6 mm 2 m/S 756 mmHg 84%
    07:00 +27°C° 1,6 mm 2 m/S 756 mmHg 84%
    08:00 +29°C° 1,1 mm 3 m/S 757 mmHg 77%
    09:00 +30°C° 1,1 mm 3 m/S 757 mmHg 70%
    10:00 +31°C° 1,1 mm 3 m/S 758 mmHg 63%
    11:00 +33°C° 0,8 mm 3 m/S 757 mmHg 60%
    12:00 +34°C° 0,8 mm 4 m/S 757 mmHg 58%
    13:00 +34°C° 0,8 mm 4 m/S 756 mmHg 55%
    14:00 +34°C° 0,4 mm 4 m/S 756 mmHg 57%
    15:00 +34°C° 0,4 mm 4 m/S 756 mmHg 59%
    16:00 +33°C° 0,4 mm 5 m/S 755 mmHg 61%
    17:00 +32°C° 0,1 mm 4 m/S 755 mmHg 65%
    18:00 +30°C° 0,1 mm 4 m/S 756 mmHg 70%
    19:00 +29°C° 0,1 mm 4 m/S 756 mmHg 74%
    20:00 +29°C° 0,1 mm 4 m/S 757 mmHg 76%
    21:00 +29°C° 0,1 mm 3 m/S 757 mmHg 78%
    22:00 +28°C° 0,1 mm 3 m/S 758 mmHg 79%
    23:00 +28°C° 0,2 mm 3 m/S 757 mmHg 81%

    1 März, Donnerstag

    Zeit Temperatur Niederschläge Wind Luftdruck Luftfeuchtigkeit
    00:00 +28°C° 0,2 mm 3 m/S 757 mmHg 82%
    01:00 +28°C° 0,2 mm 3 m/S 757 mmHg 84%
    02:00 +27°C° 0,5 mm 3 m/S 757 mmHg 84%
    03:00 +27°C° 0,5 mm 3 m/S 756 mmHg 85%
    04:00 +27°C° 0,5 mm 3 m/S 756 mmHg 86%
    05:00 +27°C° 0,3 mm 3 m/S 756 mmHg 85%
    06:00 +27°C° 0,3 mm 3 m/S 757 mmHg 85%
    07:00 +27°C° 0,3 mm 2 m/S 757 mmHg 84%
    08:00 +29°C° 0,7 mm 3 m/S 758 mmHg 78%
    09:00 +30°C° 0,7 mm 3 m/S 758 mmHg 73%
    10:00 +32°C° 0,7 mm 4 m/S 758 mmHg 67%
    11:00 +33°C° 0,6 mm 4 m/S 758 mmHg 64%
    12:00 +33°C° 0,6 mm 4 m/S 758 mmHg 62%
    13:00 +34°C° 0,6 mm 4 m/S 757 mmHg 59%
    14:00 +34°C° 0,2 mm 4 m/S 757 mmHg 60%
    15:00 +34°C° 0,2 mm 4 m/S 756 mmHg 60%
    16:00 +33°C° 0,2 mm 5 m/S 756 mmHg 61%
    17:00 +32°C° 0,1 mm 4 m/S 756 mmHg 66%
    18:00 +30°C° 0,1 mm 4 m/S 757 mmHg 71%
    19:00 +29°C° 0,1 mm 4 m/S 757 mmHg 76%
    20:00 +29°C° 0 mm 3 m/S 757 mmHg 78%
    21:00 +29°C° 0 mm 3 m/S 758 mmHg 80%
    22:00 +28°C° 0 mm 3 m/S 758 mmHg 82%
    23:00 +28°C° 0 mm 3 m/S 758 mmHg 83%

    2 März, Freitag

    Zeit Temperatur Niederschläge Wind Luftdruck Luftfeuchtigkeit
    00:00 +28°C° 0 mm 2 m/S 758 mmHg 83%
    01:00 +28°C° 0 mm 2 m/S 757 mmHg 84%
    02:00 +28°C° 0,1 mm 2 m/S 757 mmHg 85%
    03:00 +27°C° 0,1 mm 2 m/S 757 mmHg 85%
    04:00 +27°C° 0,1 mm 2 m/S 757 mmHg 86%
    05:00 +27°C° 0,1 mm 2 m/S 757 mmHg 85%
    06:00 +27°C° 0,1 mm 2 m/S 757 mmHg 85%
    07:00 +28°C° 0,1 mm 2 m/S 757 mmHg 85%
    08:00 +29°C° 0,1 mm 2 m/S 758 mmHg 77%
    09:00 +30°C° 0,1 mm 2 m/S 758 mmHg 70%
    10:00 +32°C° 0,1 mm 2 m/S 758 mmHg 63%
    11:00 +33°C° 0,2 mm 3 m/S 758 mmHg 61%
    12:00 +34°C° 0,2 mm 3 m/S 758 mmHg 58%
    13:00 +35°C° 0,2 mm 3 m/S 757 mmHg 55%
    14:00 +34°C° 0,3 mm 4 m/S 757 mmHg 57%
    15:00 +34°C° 0,3 mm 4 m/S 756 mmHg 59%
    16:00 +33°C° 0,3 mm 4 m/S 756 mmHg 62%
    17:00 +32°C° 0,2 mm 4 m/S 756 mmHg 67%
    18:00 +30°C° 0,2 mm 4 m/S 756 mmHg 72%
    19:00 +29°C° 0,2 mm 4 m/S 757 mmHg 77%
    20:00 +29°C° 0,1 mm 4 m/S 757 mmHg 78%
    21:00 +29°C° 0,1 mm 3 m/S 757 mmHg 80%
    22:00 +28°C° 0,1 mm 3 m/S 758 mmHg 82%
    23:00 +28°C° 0 mm 3 m/S 757 mmHg 83%
    Mehr zeigen